RESOLUÇÃO N. 008/2020

Descrição
Aprova a revogação expressa das Resoluções já revogadas tacitamente ou cujos efeitos tenham se exaurido no tempo em decorrência do disposto no Decreto N. 10.139, de 28 de novembro de 2019, na (...)
Data de produção
14/04/2020 00:00
Procedência
GABINETE DO REITOR - 01.01.00.00.0.0 (Unidade administrativa)
Interessado
GABINETE DO REITOR - 01.01.00.00.0.0 (Unidade administrativa)
Classificação
010 - Organização e Funcionamento
Tipo documental
Resolução de organização e funcionamento

Eventos

Data Movimentação Observação
Nov 12, 2020 4:40:26 PM Revoga 005318/2020 (TAIANI BACCHI KIENETZ)
Oct 26, 2020 11:06:16 AM Revoga 005050/2020 (TAIANI BACCHI KIENETZ)
Oct 21, 2020 2:27:26 PM Revoga 005020/2020 (TAIANI BACCHI KIENETZ)
Apr 24, 2020 10:11:04 AM Alteração de documento
Apr 24, 2020 10:11:04 AM Alteração de documento
Apr 23, 2020 7:30:14 PM Revoga 000719/2013 (TAIANI BACCHI KIENETZ)
Apr 23, 2020 7:29:59 PM Revoga 000722/2013 (TAIANI BACCHI KIENETZ)
Apr 23, 2020 7:29:43 PM Revoga 000720/2013 (TAIANI BACCHI KIENETZ)
Apr 23, 2020 7:29:30 PM Revoga 000721/2013 (TAIANI BACCHI KIENETZ)
Apr 23, 2020 7:29:04 PM Revoga 000811/2013 (TAIANI BACCHI KIENETZ)
Apr 23, 2020 7:28:51 PM Revoga 000723/2013 (TAIANI BACCHI KIENETZ)
Apr 23, 2020 7:28:28 PM Revoga 000765/2013 (TAIANI BACCHI KIENETZ)
Apr 23, 2020 7:27:50 PM Revoga 000746/2013 (TAIANI BACCHI KIENETZ)
Apr 23, 2020 7:27:33 PM Revoga 000747/2013 (TAIANI BACCHI KIENETZ)
Apr 23, 2020 7:27:19 PM Revoga 000748/2013 (TAIANI BACCHI KIENETZ)
Apr 23, 2020 7:27:00 PM Revoga 000750/2013 (TAIANI BACCHI KIENETZ)
Apr 23, 2020 7:26:48 PM Revoga 000751/2013 (TAIANI BACCHI KIENETZ)
Apr 23, 2020 7:26:36 PM Revoga 000752/2013 (TAIANI BACCHI KIENETZ)
Apr 23, 2020 7:26:19 PM Revoga 000753/2013 (TAIANI BACCHI KIENETZ)
Apr 23, 2020 7:25:45 PM Revoga 000774/2013 (TAIANI BACCHI KIENETZ)
Apr 23, 2020 7:25:33 PM Revoga 000775/2013 (TAIANI BACCHI KIENETZ)
Apr 23, 2020 7:25:19 PM Revoga 000776/2013 (TAIANI BACCHI KIENETZ)
Apr 23, 2020 7:25:02 PM Revoga 000777/2013 (TAIANI BACCHI KIENETZ)
Apr 23, 2020 7:24:48 PM Revoga 000778/2013 (TAIANI BACCHI KIENETZ)
Apr 23, 2020 7:24:23 PM Revoga 000779/2013 (TAIANI BACCHI KIENETZ)
Apr 23, 2020 7:23:59 PM Revoga 000780/2013 (TAIANI BACCHI KIENETZ)
Apr 23, 2020 7:23:43 PM Revoga 000781/2013 (TAIANI BACCHI KIENETZ)
Apr 23, 2020 7:23:22 PM Revoga 000782/2013 (TAIANI BACCHI KIENETZ)
Apr 23, 2020 7:23:03 PM Revoga 000800/2013 (TAIANI BACCHI KIENETZ)
Apr 23, 2020 7:22:39 PM Revoga 000819/2013 (TAIANI BACCHI KIENETZ)
Apr 23, 2020 7:22:22 PM Revoga 000823/2013 (TAIANI BACCHI KIENETZ)
Apr 23, 2020 7:22:04 PM Revoga 000851/2013 (TAIANI BACCHI KIENETZ)
Apr 23, 2020 7:21:48 PM Revoga 000850/2013 (TAIANI BACCHI KIENETZ)
Apr 23, 2020 7:21:12 PM Revoga 000856/2013 (TAIANI BACCHI KIENETZ)
Apr 23, 2020 7:20:55 PM Revoga 000857/2013 (TAIANI BACCHI KIENETZ)
Apr 23, 2020 7:20:41 PM Revoga 000711/2013 (TAIANI BACCHI KIENETZ)
Apr 23, 2020 7:20:19 PM Revoga 000858/2013 (TAIANI BACCHI KIENETZ)
Apr 23, 2020 7:19:59 PM Revoga 000704/2013 (TAIANI BACCHI KIENETZ)
Apr 23, 2020 7:19:38 PM Revoga 000869/2013 (TAIANI BACCHI KIENETZ)
Apr 23, 2020 7:18:57 PM Revoga 000870/2013 (TAIANI BACCHI KIENETZ)
Apr 23, 2020 7:18:40 PM Revoga 000880/2013 (TAIANI BACCHI KIENETZ)
Apr 23, 2020 7:18:15 PM Revoga 000889/2013 (TAIANI BACCHI KIENETZ)
Apr 23, 2020 7:17:58 PM Revoga 000891/2013 (TAIANI BACCHI KIENETZ)
Apr 23, 2020 7:17:28 PM Revoga 000893/2013 (TAIANI BACCHI KIENETZ)
Apr 23, 2020 7:17:07 PM Revoga 000895/2013 (TAIANI BACCHI KIENETZ)
Apr 23, 2020 7:16:44 PM Revoga 000916/2013 (TAIANI BACCHI KIENETZ)
Apr 23, 2020 7:16:18 PM Revoga 000909/2013 (TAIANI BACCHI KIENETZ)
Apr 23, 2020 7:15:57 PM Revoga 000922/2013 (TAIANI BACCHI KIENETZ)
Apr 23, 2020 7:15:25 PM Revoga 000932/2013 (TAIANI BACCHI KIENETZ)
Apr 23, 2020 7:15:10 PM Revoga 000943/2013 (TAIANI BACCHI KIENETZ)
Apr 23, 2020 7:14:51 PM Revoga 000945/2013 (TAIANI BACCHI KIENETZ)
Apr 23, 2020 7:14:36 PM Revoga 000948/2013 (TAIANI BACCHI KIENETZ)
Apr 23, 2020 7:14:09 PM Revoga 000951/2013 (TAIANI BACCHI KIENETZ)
Apr 23, 2020 7:13:45 PM Revoga 000953/2013 (TAIANI BACCHI KIENETZ)
Apr 23, 2020 7:13:14 PM Revoga 000955/2013 (TAIANI BACCHI KIENETZ)
Apr 23, 2020 7:12:51 PM Revoga 000956/2013 (TAIANI BACCHI KIENETZ)
Apr 23, 2020 7:12:19 PM Revoga 000957/2013 (TAIANI BACCHI KIENETZ)
Apr 23, 2020 7:12:03 PM Revoga 000958/2013 (TAIANI BACCHI KIENETZ)
Apr 23, 2020 7:11:43 PM Revoga 000966/2013 (TAIANI BACCHI KIENETZ)
Apr 23, 2020 7:11:22 PM Revoga 000968/2013 (TAIANI BACCHI KIENETZ)
Apr 23, 2020 7:11:03 PM Revoga 000978/2013 (TAIANI BACCHI KIENETZ)
Apr 23, 2020 7:10:44 PM Revoga 000981/2013 (TAIANI BACCHI KIENETZ)
Apr 23, 2020 7:10:18 PM Revoga 000984/2013 (TAIANI BACCHI KIENETZ)
Apr 23, 2020 7:10:00 PM Revoga 000990/2013 (TAIANI BACCHI KIENETZ)
Apr 23, 2020 7:09:19 PM Revoga 000572/2011 (TAIANI BACCHI KIENETZ)
Apr 23, 2020 7:08:53 PM Revoga 000573/2011 (TAIANI BACCHI KIENETZ)
Apr 23, 2020 7:08:36 PM Revoga 000576/2011 (TAIANI BACCHI KIENETZ)
Apr 23, 2020 7:08:14 PM Revoga 000580/2011 (TAIANI BACCHI KIENETZ)
Apr 23, 2020 7:07:49 PM Revoga 000588/2011 (TAIANI BACCHI KIENETZ)
Apr 23, 2020 7:07:34 PM Revoga 000597/2011 (TAIANI BACCHI KIENETZ)
Apr 23, 2020 7:07:02 PM Revoga 000598/2011 (TAIANI BACCHI KIENETZ)
Apr 23, 2020 7:06:33 PM Revoga 000591/2011 (TAIANI BACCHI KIENETZ)
Apr 23, 2020 7:06:07 PM Revoga 000565/2011 (TAIANI BACCHI KIENETZ)
Apr 23, 2020 7:05:39 PM Revoga 000552/2011 (TAIANI BACCHI KIENETZ)
Apr 23, 2020 7:05:22 PM Revoga 000556/2011 (TAIANI BACCHI KIENETZ)
Apr 23, 2020 7:05:01 PM Revoga 000463/2011 (TAIANI BACCHI KIENETZ)
Apr 23, 2020 7:04:38 PM Revoga 000459/2011 (TAIANI BACCHI KIENETZ)
Apr 23, 2020 7:04:19 PM Revoga 000449/2011 (TAIANI BACCHI KIENETZ)
Apr 23, 2020 7:04:00 PM Revoga 000453/2011 (TAIANI BACCHI KIENETZ)
Apr 23, 2020 7:03:39 PM Revoga 000454/2011 (TAIANI BACCHI KIENETZ)
Apr 23, 2020 7:03:11 PM Revoga 000456/2011 (TAIANI BACCHI KIENETZ)
Apr 23, 2020 7:02:47 PM Revoga 000442/2011 (TAIANI BACCHI KIENETZ)
Apr 23, 2020 7:02:29 PM Revoga 000439/2011 (TAIANI BACCHI KIENETZ)
Apr 23, 2020 7:01:49 PM Revoga 000430/2011 (TAIANI BACCHI KIENETZ)
Apr 23, 2020 7:01:16 PM Revoga 000431/2011 (TAIANI BACCHI KIENETZ)
Apr 23, 2020 7:00:53 PM Revoga 000436/2011 (TAIANI BACCHI KIENETZ)
Apr 23, 2020 7:00:19 PM Revoga 000421/2011 (TAIANI BACCHI KIENETZ)
Apr 23, 2020 7:00:03 PM Revoga 000406/2011 (TAIANI BACCHI KIENETZ)
Apr 23, 2020 6:59:49 PM Revoga 000407/2011 (TAIANI BACCHI KIENETZ)
Apr 23, 2020 6:59:19 PM Revoga 000415/2011 (TAIANI BACCHI KIENETZ)
Apr 23, 2020 6:58:12 PM Revoga 000396/2011 (TAIANI BACCHI KIENETZ)
Apr 23, 2020 6:57:00 PM Revoga 000398/2011 (TAIANI BACCHI KIENETZ)
Apr 23, 2020 6:55:46 PM Revoga 000389/2011 (TAIANI BACCHI KIENETZ)
Apr 23, 2020 6:54:43 PM Revoga 000374/2011 (TAIANI BACCHI KIENETZ)
Apr 23, 2020 6:54:06 PM Revoga 000380/2011 (TAIANI BACCHI KIENETZ)
Apr 23, 2020 6:53:47 PM Revoga 000381/2011 (TAIANI BACCHI KIENETZ)
Apr 23, 2020 6:53:24 PM Revoga 000342/2011 (TAIANI BACCHI KIENETZ)
Apr 23, 2020 6:52:34 PM Revoga 000350/2011 (TAIANI BACCHI KIENETZ)
Apr 23, 2020 6:51:38 PM Revoga 000336/2011 (TAIANI BACCHI KIENETZ)
Apr 23, 2020 6:50:51 PM Revoga 000321/2011 (TAIANI BACCHI KIENETZ)
Apr 23, 2020 6:49:51 PM Revoga 000316/2011 (TAIANI BACCHI KIENETZ)
Apr 23, 2020 6:49:31 PM Revoga 000311/2011 (TAIANI BACCHI KIENETZ)
Apr 23, 2020 6:48:44 PM Revoga 000302/2011 (TAIANI BACCHI KIENETZ)
Apr 23, 2020 6:48:12 PM Revoga 000298/2011 (TAIANI BACCHI KIENETZ)
Apr 23, 2020 6:47:43 PM Revoga 000295/2011 (TAIANI BACCHI KIENETZ)
Apr 23, 2020 6:47:20 PM Revoga 000274/2011 (TAIANI BACCHI KIENETZ)
Apr 23, 2020 6:47:03 PM Revoga 000277/2011 (TAIANI BACCHI KIENETZ)
Apr 23, 2020 6:46:41 PM Revoga 000281/2011 (TAIANI BACCHI KIENETZ)
Apr 23, 2020 6:46:23 PM Revoga 000530/2011 (TAIANI BACCHI KIENETZ)
Apr 23, 2020 6:45:52 PM Revoga 000538/2011 (TAIANI BACCHI KIENETZ)
Apr 23, 2020 6:45:25 PM Revoga 000544/2011 (TAIANI BACCHI KIENETZ)
Apr 23, 2020 6:45:10 PM Revoga 000545/2011 (TAIANI BACCHI KIENETZ)
Apr 23, 2020 6:44:46 PM Revoga 000528/2011 (TAIANI BACCHI KIENETZ)
Apr 23, 2020 6:44:25 PM Revoga 000529/2011 (TAIANI BACCHI KIENETZ)
Apr 23, 2020 6:43:54 PM Revoga 000217/2010 (TAIANI BACCHI KIENETZ)
Apr 23, 2020 6:43:24 PM Revoga 000216/2010 (TAIANI BACCHI KIENETZ)
Apr 23, 2020 6:43:03 PM Revoga 000188/2010 (TAIANI BACCHI KIENETZ)
Apr 23, 2020 6:41:25 PM Revoga 000172/2010 (TAIANI BACCHI KIENETZ)
Apr 23, 2020 6:41:10 PM Revoga 000174/2010 (TAIANI BACCHI KIENETZ)
Apr 23, 2020 6:40:45 PM Revoga 000185/2010 (TAIANI BACCHI KIENETZ)
Apr 23, 2020 5:44:03 PM Revoga 000170/2010 (TAIANI BACCHI KIENETZ)
Apr 23, 2020 5:43:51 PM Revoga 000169/2010 (TAIANI BACCHI KIENETZ)
Apr 23, 2020 5:43:28 PM Revoga 000168/2010 (TAIANI BACCHI KIENETZ)
Apr 23, 2020 5:43:10 PM Revoga 000156/2010 (TAIANI BACCHI KIENETZ)
Apr 23, 2020 5:16:51 PM Revoga 000155/2010 (TAIANI BACCHI KIENETZ)
Apr 23, 2020 5:16:30 PM Revoga 020628/2016 (TAIANI BACCHI KIENETZ)
Apr 23, 2020 5:16:14 PM Revoga 000120/2010 (TAIANI BACCHI KIENETZ)
Apr 23, 2020 5:15:59 PM Revoga 000094/2010 (TAIANI BACCHI KIENETZ)
Apr 23, 2020 5:15:43 PM Revoga 020627/2016 (TAIANI BACCHI KIENETZ)
Apr 23, 2020 5:15:23 PM Revoga 000104/2010 (TAIANI BACCHI KIENETZ)
Apr 23, 2020 5:15:10 PM Revoga 000113/2010 (TAIANI BACCHI KIENETZ)
Apr 23, 2020 5:14:53 PM Revoga 000229/2011 (TAIANI BACCHI KIENETZ)
Apr 23, 2020 5:14:37 PM Revoga 000060/2010 (TAIANI BACCHI KIENETZ)
Apr 23, 2020 5:14:27 PM Revoga 000058/2010 (TAIANI BACCHI KIENETZ)
Apr 23, 2020 5:14:14 PM Revoga 020626/2016 (TAIANI BACCHI KIENETZ)
Apr 23, 2020 5:13:51 PM Revoga 000654/2011 (TAIANI BACCHI KIENETZ)
Apr 23, 2020 5:13:36 PM Revoga 000653/2011 (TAIANI BACCHI KIENETZ)
Apr 23, 2020 5:13:15 PM Revoga 000636/2011 (TAIANI BACCHI KIENETZ)
Apr 23, 2020 5:13:00 PM Revoga 000663/2012 (TAIANI BACCHI KIENETZ)
Apr 23, 2020 5:12:48 PM Revoga 000630/2011 (TAIANI BACCHI KIENETZ)
Apr 23, 2020 5:12:19 PM Revoga 000616/2011 (TAIANI BACCHI KIENETZ)
Apr 23, 2020 5:12:07 PM Revoga 000600/2011 (TAIANI BACCHI KIENETZ)
Apr 23, 2020 5:11:54 PM Revoga 020625/2016 (TAIANI BACCHI KIENETZ)
Apr 23, 2020 5:11:29 PM Revoga 000700/2013 (TAIANI BACCHI KIENETZ)
Apr 23, 2020 5:11:14 PM Revoga 001014/2013 (TAIANI BACCHI KIENETZ)
Apr 23, 2020 5:11:02 PM Revoga 019555/2016 (TAIANI BACCHI KIENETZ)
Apr 23, 2020 5:09:14 PM Alteração de documento
Apr 23, 2020 5:09:14 PM Alteração de documento
Apr 23, 2020 4:50:43 PM Apensado 003475/2020 (TAIANI BACCHI KIENETZ)
Apr 23, 2020 4:49:20 PM Originado(a) por 23081.001921/2020-94 (TAIANI BACCHI KIENETZ)
Apr 23, 2020 4:47:41 PM Criação do documento Procedência: GABINETE DO REITOR